Regional Weather Roundup
Issued by NWS Burlington, VT

Home | Current Version | Previous Version | Text Only | Print | Product List | Glossary On
Versions: 1 2 3 4 5 6 7 8 9 10 11 12 13 14 15 16 17 18 19 20 21 22 23 24 25 26 27 28 29 30 31 32 33 34 35 36 37 38 39 40 41 42 43 44 45 46 47 48 49 50
000
ASUS41 KBTV 292230
RWRBTV
VERMONT REGIONAL WEATHER ROUNDUP
NATIONAL WEATHER SERVICE BURLINGTON VT
600 PM EDT FRI MAY 29 2015

NOTE: "FAIR" INDICATES FEW OR NO CLOUDS BELOW 12,000 FEET WITH NO
SIGNIFICANT WEATHER AND/OR OBSTRUCTIONS TO VISIBILITY.

* THESE REPORTS ARE NOT UNDER NWS QUALITY CONTROL AND/OR DO NOT
  REPORT WEATHER SUCH AS PRECIPITATION AND FOG.

VTZ001>019-292300-
_____VERMONT_____


CITY           SKY/WX    TMP DP  RH WIND       PRES   REMARKS
BURLINGTON     MOCLDY    80  50  34 S8        30.17F
MONTPELIER     MOCLDY    76  55  48 S7        30.24F
MORRISVILLE    MOCLDY    80  52  37 CALM      30.20F
ST. JOHNSBURY*   N/A     80  50  34 MISG      30.17F
LYNDONVILLE*   MOCLDY    76  51  41 SE6       30.22F
MIDDLEBURY*      N/A     75  60  58 CALM      30.18F
RUTLAND*       MOCLDY    75  57  53 W5        30.20F
SPRINGFIELD    PTCLDY    79  54  41 S8        30.20F
HIGHGATE*        N/A     75  57  52 CALM      30.17F
NEWPORT*         N/A     73  56  54 W3        30.20F
BENNINGTON     MOCLDY    78  60  53 N3        30.21F
SUTTON*          N/A     77 N/A N/A MISG        N/A
GALLUP MILLS*    N/A     75 N/A N/A MISG        N/A
MT. MANSFIELD*   N/A     63 N/A N/A CALM        N/A

_____LAKE CHAMPLAIN_____


CITY           SKY/WX    TMP DP  RH WIND       PRES   REMARKS
BURTON ISLAND*   N/A     73  57  56 NE2         N/A
COLCHESTER RF*   N/A     77  50  38 S9          N/A
DIAMOND ISL*     N/A     77  48  36 SE10        N/A

$$

NYZ007-026>031-035-052-083-292300-
_____NORTHERN NEW YORK_____


CITY           SKY/WX    TMP DP  RH WIND       PRES   REMARKS
PLATTSBURGH    MOCLDY    75  51  43 SE8       30.16F
SARANAC LAKE   MOCLDY    76  49  38 CALM      30.18F
MASSENA        MOCLDY    79  57  46 CALM      30.15F
OGDENSBURG*    CLEAR     79  59  50 CALM      30.13F
POTSDAM*       CLEAR     81  57  44 SW5       30.13F
STARK FALLS*     N/A     75 N/A N/A SW6         N/A
WATERTOWN      MOCLDY    80  46  30 SW6       30.13F
FT DRUM        MOCLDY    80  50  35 SW7       30.14F
ALBANY         CLOUDY    82  52  35 SE9       30.18F
GLENS FALLS    CLOUDY    79  55  43 S6        30.18F

$$
NHZ002-005-011-292300-
_____NEW HAMPSHIRE_____


CITY           SKY/WX    TMP DP  RH WIND       PRES   REMARKS
LEBANON        PTCLDY    81  53  37 S5        30.19F
KEENE          PTCLDY    79  57  47 S5        30.22S
MT WASHINGTON  MOCLDY    54  48  82 SW7         N/A
PLYMOUTH         N/A     78  61  55 CALM      30.20F
WHITEFIELD     PTCLDY    79  54  41 W5        30.20F

$$

_____REGIONAL QUEBEC LOCATIONS_____


CITY           SKY/WX    TMP DP  RH WIND       PRES   REMARKS
MONTREAL       CLOUDY    77  55  47 SE8       30.15F
QUEBEC CITY    MOCLDY    72  54  53 W8        30.16F
SHERBROOKE     CLEAR     73  54  49 W6        30.19F

_____REGIONAL ONTARIO LOCATIONS_____


CITY           SKY/WX    TMP DP  RH WIND       PRES   REMARKS
OTTAWA         CLOUDY    77  54  44 S10       30.13F

______KEY______
VSB  - VISIBILITY IN MILES
WCI  - WIND CHILL INDEX
HX   - HEAT INDEX
$$



USA.gov is the U.S. government's official web portal to all federal, state and local government web resources and services.